Location: Arbon
(43.0005°N, 0.7472°E)
Time: 22:37:11
(UTC+00:00)

Altair - Pass Details

Date: 26 November 2020
Orbit: 1501 x 1682 km, 47.2° (Epoch: 26 January)

Event Time Altitude Azimuth Distance (km) Brightness Sun altitude
Rises 02:01:16 0° 291° (WNW) 4,642 - -54.0°
Reaches altitude 10° 02:04:17 10° 292° (WNW) 3,656 - -53.5°
Maximum altitude 02:13:30 89° 22° (NNE) 1,513 - -52.0°
Exits shadow 02:19:55 23° 113° (ESE) 2,782 9.0 -50.9°
Drops below altitude 10° 02:22:51 10° 114° (ESE) 3,706 9.8 -50.4°
Sets 02:25:55 0° 114° (ESE) 4,708 10.5 -49.9°
